User: anonymous
Location: Pine Mountain Observatory
(43.7910°N, 120.9377°W)
Time: 14:23:21
(UTC-07:00)
Language:

Cosmos 1076 Rocket - Orbit

View from above orbital plane
View from above orbital plane
View from above satellite
View from above satellite

Ground track
Ground track

The orbit data is extracted from the following two-line orbital elements,

1 11267U 79011B   14105.99943199  .00000653  00000-0  68126-4 0  3815
2 11267 082.5261 242.4253 0018704 118.9697 018.6459 14.88072476903176
Epoch (UTC): 15 April 2014 23:59:10
Eccentricity: 0.0018704
inclination: 82.5261°
perigee height: 591 km
apogee height: 617 km
right ascension of ascending node: 242.4253°
argument of perigee: 118.9697°
revolutions per day: 14.88072476
mean anomaly at epoch: 18.6459°
orbit number at epoch: 90317

The dashed part of the orbit path shows where the satellite is in the earth's shadow,  

DLR